Index of /music

[ICO]NameLast modifiedSizeDescription

[PARENTDIR]Parent Directory  -  
[SND]01 - Hes Simple Hes Dumb Hes the Pilot.mp32018-03-01 03:37 8.1M 
[SND]01 - Hes Simple Hes Dumb Hes the Pilot.ogg2018-03-01 03:37 12M 
[SND]01 It's a Bitch to be Alone.mp32018-03-01 03:37 3.0M 
[SND]01 - Jackie.ogg2018-03-01 03:37 3.5M 
[SND]01 - Kinetic.mp32018-03-01 03:38 7.5M 
[SND]01. Life Not Lost (1).mp32018-03-01 03:38 3.6M 
[SND]01 Roscoe.mp32018-03-01 03:38 4.6M 
[SND]01 The Concept of Love - Hideki Naganuma of Wave Master Inc. for JSRF-Jet Set Radio Future Available only on Microsoft's Xbox.mp32018-03-01 03:38 3.4M 
[SND]01 The Professor and la Fille Danse (live at Cornucopia).mp32018-03-01 03:38 5.1M 
[   ]01 The Professor (Live).m4p2018-03-01 03:38 4.8M 
[SND]01 This Magic Moment.mp32018-03-01 03:38 3.6M 
[SND]02 - Alcohol.ogg2018-03-01 03:38 5.7M 
[SND]02 Defens.mp32018-03-01 03:38 4.9M 
[SND]02 Gina.mp32018-03-01 03:38 5.6M 
[SND]02 - Nearly Lost You.ogg2018-03-01 03:38 5.3M 
[SND]02 - Nutshell.ogg2018-03-01 03:38 5.5M 
[SND]02-opeth - the night and the silent water.mp32018-03-01 03:38 10M 
[SND]02 Pocket Calculator (LP Version).mp32018-03-01 03:39 9.1M 
[SND]02 - State Trooper.mp32018-03-01 03:39 6.2M 
[SND]03 - Angelina Chthonian Earth Her Face Forms Worms.mp32018-03-01 03:39 5.3M 
[SND]03 Autumn Defense-Where You Are.mp32018-03-01 03:39 4.5M 
[SND]03 - Bled For Days.ogg2018-03-01 03:39 3.2M 
[SND]03 Caroline.mp32018-03-01 03:39 6.4M 
[SND]03 - Dance On A Vulcano.ogg2018-03-01 03:39 9.2M 
[SND]03. Early In The Morning (Remastered 2004).mp32018-03-01 03:39 4.9M 
[SND]03 - Nobody Home.ogg2018-03-01 03:39 2.8M 
[SND]03 - Right Turn.mp32018-03-01 03:39 4.5M 
[SND]03 - Space Lord.mp32018-03-01 03:39 8.1M 
[SND]03 The Smokey Life.mp32018-03-01 03:39 6.4M 
[SND]03 - Tribute.mp32018-03-01 03:40 3.8M 
[SND]04 Autumn Defense-Winterlight.mp32018-03-01 03:40 2.7M 
[SND]04 - Collapse Generation.mp32018-03-01 03:40 5.8M 
[SND]04 - Duality.mp32018-03-01 03:40 5.8M 
[SND]04 - Here It Is.ogg2018-03-01 03:40 3.6M 
[SND]04 Jockey Full Of Bourbon.mp32018-03-01 03:40 3.8M 
[SND]04 - Just Like U Said It Would Be.ogg2018-03-01 03:40 6.9M 
[SND]05 Escape from the Prison Planet.mp32018-03-01 03:40 5.6M 
[SND]05 - I Am.ogg2018-03-01 03:40 2.6M 
[SND]05 I Can't Read.mp32018-03-01 03:40 5.6M 
[SND]05 - Lottery.mp32018-03-01 03:40 2.8M 
[SND]06 - A Dish Best Served Coldly.ogg2018-03-01 03:40 11M 
[SND]06 Destroyer.mp32018-03-01 03:40 7.3M 
[SND]06 - Dont Follow.mp32018-03-01 03:41 4.0M 
[SND]06 - Dont Follow.ogg2018-03-01 03:41 5.8M 
[SND]06 - Got the Time.ogg.ff.mp32018-03-01 03:41 4.3M 
[SND]06 - Hallelujah.mp32018-03-01 03:41 6.3M 
[SND]06 Home Computer (LP Version).mp32018-03-01 03:41 12M 
[SND]06 - The Great Outdoors.mp32018-03-01 03:41 3.5M 
[SND]07 - Lover You Shouldve Come Over.ogg2018-03-01 03:41 6.3M 
[SND]07 Make It Wit Chu.mp32018-03-01 03:41 4.4M 
[SND]07 - Say It Ain't So.mp32018-03-01 03:41 3.9M 
[SND]07 - Say It Ain't So.ogg2018-03-01 03:41 7.5M 
[SND]07 - the crawl.ogg2018-03-01 03:41 2.4M 
[SND]07 The Loneliness Of A Tower Crane Driver.mp32018-03-01 03:41 8.5M 
[SND]08 Andy Warhol.mp32018-03-01 03:41 4.5M 
[SND]08 - Got the Time.ogg.ff.mp32018-03-01 03:42 2.5M 
[SND]08 - Parasite.ogg2018-03-01 03:42 4.4M 
[SND]08 - Rivers of Babylon.mp32018-03-01 03:42 2.4M 
[SND]08 The Fix.mp32018-03-01 03:42 7.6M 
[SND]09. Jump Into The Fire (Remastered 2004).mp32018-03-01 03:42 13M 
[SND]10 - Mabool The Flood.ogg2018-03-01 03:42 11M 
[SND]10 - Miner at the DialAView.mp32018-03-01 03:42 4.9M 
[SND]10 - Miner at the DialAView.ogg2018-03-01 03:42 7.4M 
[SND]1-13 Mommy, Can I Go Out and Kill Tonight_.mp32018-03-01 03:42 2.8M 
[SND]11 - Cars.ogg2018-03-01 03:42 6.3M 
[SND]11 - Hollow.ogg2018-03-01 03:42 7.8M 
[SND]11 - Tear You Apart.mp32018-03-01 03:43 6.6M 
[SND]12 I Believe.mp32018-03-01 03:43 5.7M 
[SND]12 Sweet Surrender.mp32018-03-01 03:43 6.2M 
[SND]12 - Type O Negative Black Sabbath.ogg2018-03-01 03:43 10M 
[SND]12 - Welcome to the Cruel World.mp32018-03-01 03:43 5.1M 
[SND]13 - Without You Im Nothing featuring David Bowie.ogg2018-03-01 03:43 5.7M 
[SND]14 Mommy Can I Go Out and Kill Tonight_.m4a2018-03-01 03:43 3.9M 
[SND]15 - Roulette.ogg2018-03-01 03:43 4.0M 
[SND]acid.mp32018-03-01 03:43 4.1M 
[SND]acouelec.mp32018-03-01 03:43 1.1M 
[   ]alexchilton.tar.gz2018-03-01 03:44 47M 
[SND]alison.ogg2018-03-01 03:44 1.4M 
[SND]angelbirm-c.mp32018-03-01 03:44 3.1M 
[SND]angelbirm.mp32018-03-01 03:44 4.1M 
[SND]anotherdream.mp32018-03-01 03:44 1.9M 
[SND]A Thousand Kisses Deep.ogg2018-03-01 03:44 5.3M 
[SND]Axis of Evil.mp32018-03-01 03:44 5.2M 
[DIR]Ben/2018-03-01 03:45 -  
[SND]bittersweet3.mp32018-03-01 03:45 4.1M 
[SND]bittersweet-chris.mp32018-03-01 03:45 5.7M 
[SND]bittersweet-rc.mp32018-03-01 03:45 3.8M 
[SND]blackbird.mp32018-03-01 03:45 2.2M 
[SND]Black on Broadway.mp32018-03-01 03:46 53M 
[SND]Blind Faith - Can't Find My Way Home.mp32018-03-01 03:46 3.0M 
[SND]breakdown-kj.mp32018-03-01 03:46 2.0M 
[SND]By the Rivers of Babylon.mp32018-03-01 03:46 3.9M 
[SND]cantfindmywayhome.mp32018-03-01 03:46 3.0M 
[SND]Can't Help Myself.mp32018-03-01 03:46 2.0M 
[SND]cantsmile.mp32018-03-01 03:46 2.3M 
[SND]caseyjones-nutshell.mp32018-03-01 03:47 13M 
[SND]C'est La Vie.mp32018-03-01 03:47 3.9M 
[SND]C'est La Vie.ogg2018-03-01 03:47 8.2M 
[SND]challenger2.mp32018-03-01 03:47 2.5M 
[SND]challenger3.mp32018-03-01 03:47 2.1M 
[SND]challenger4.mp32018-03-01 03:47 1.9M 
[SND]challenger.mp32018-03-01 03:47 1.2M 
[SND]comeawaywithme-amber.mp32018-03-01 03:47 3.0M 
[SND]Cool Moon.mp32018-03-01 03:47 2.7M 
[SND]crazy.mp32018-03-01 03:47 1.5M 
[SND]creep-acoustic.mp32018-03-01 03:47 3.7M 
[SND]crymeariver.mp32018-03-01 03:47 2.9M 
[SND]crystal 1.mp32018-03-01 03:47 1.2M 
[SND]crystal.mp32018-03-01 03:47 1.2M 
[DIR]damnation/2018-03-01 03:47 -  
[SND]David Bowie - Rock 'N' Roll Suicide.mp32018-03-01 03:47 2.8M 
[SND]De Blues en Funk.mp32018-03-01 03:47 5.4M 
[SND]dec12.wack.mp32018-03-01 03:48 7.9M 
[DIR]Demanufacture/2018-03-01 03:48 -  
[SND]detectives-caseyjones.mp32018-03-01 03:49 13M 
[SND]dineonyou-rich.mp32018-03-01 03:49 1.6M 
[SND]Dio.ogg2018-03-01 03:49 3.0M 
[SND]dontknowwhy.mp32018-03-01 03:49 2.9M 
[SND]Double Team.mp32018-03-01 03:49 2.9M 
[SND]Dreaming.ogg2018-03-01 03:49 7.7M 
[SND]dreamtimeflight.mp32018-03-01 03:49 1.1M 
[SND]drh.mp32018-03-01 03:49 4.1M 
[SND]drums.mp32018-03-01 03:49 5.2M 
[DIR]elp/2018-03-01 03:50 -  
[SND]Emotional Weather Report.mp32018-03-01 03:50 2.6M 
[DIR]emptyglass/2018-03-01 03:51 -  
[SND]epiphany.mp32018-03-01 03:51 4.0M 
[SND]faces.mp32018-03-01 03:51 1.8M 
[SND]fucked.mp32018-03-01 03:51 3.9M 
[SND]Fuck Her Gently.mp32018-03-01 03:51 1.9M 
[SND]Fuck Her Gently.ogg2018-03-01 03:51 3.6M 
[SND]fuckwave.wav2018-03-01 03:51 1.1M 
[SND]fullnelson.ogg2018-03-01 03:51 1.6M 
[SND]funkass.ogg2018-03-01 03:51 1.5M 
[SND]getiton.mp32018-03-01 03:51 4.2M 
[SND]gm7someother7.mp32018-03-01 03:51 4.9M 
[DIR]Grace/2018-03-01 03:52 -  
[SND]grocerystore.mp32018-03-01 03:52 1.0M 
[SND]guitars.mp32018-03-01 03:52 12M 
[SND]guitars-rc.mp32018-03-01 03:52 1.9M 
[SND]Hallelujah.mp32018-03-01 03:52 6.3M 
[SND]halle.mp32018-03-01 03:52 2.1M 
[SND]hardtruth-fsharp.wav2018-03-01 03:53 29M 
[SND]hardtruth-guitar.wav2018-03-01 03:53 27M 
[SND]hardtruth.mp32018-03-01 03:53 3.6M 
[SND]hardtruth-vocals.wav2018-03-01 03:53 18M 
[SND]Hold Your Head High.mp32018-03-01 03:54 12M 
[SND]houserising.mp32018-03-01 03:54 1.7M 
[SND]ht-variation.wav2018-03-01 03:54 26M 
[SND]hurt1.mp32018-03-01 03:54 2.5M 
[SND]I'm Going Home (Woodstock).mp32018-03-01 03:54 8.7M 
[SND]I'm On Fire.mp32018-03-01 03:54 2.8M 
[SND]In Love.mp32018-03-01 03:54 4.4M 
[SND]It's a Good Thing.mp32018-03-01 03:54 4.1M 
[SND]jammyjam.wav2018-03-01 03:54 10M 
[SND]jawbreaker - bivouac - 12 - Parabola (1).mp32018-03-01 03:54 2.8M 
[SND]jb4jenny.mp32018-03-01 03:55 2.1M 
[SND]jenny.mp32018-03-01 03:55 1.9M 
[SND]Jenny Was A Friend Of Mine.ogg2018-03-01 03:55 6.2M 
[SND]Joanna Newsom - Book of Right On.mp32018-03-01 03:55 5.1M 
[SND]Kenlie.mp32018-03-01 03:55 2.3M 
[SND]knockin.mp32018-03-01 03:55 2.9M 
[SND]leaktest.mp32018-03-01 03:55 3.0M 
[SND]Least Favorite Child 2.mp32018-03-01 03:55 3.8M 
[SND]Least Favorite Child.mp32018-03-01 03:55 3.2M 
[DIR]Led Zeppelin IV (1974)/2018-03-01 03:56 -  
[SND]Leonard Cohen - Everybody Knows.mp32018-03-01 03:56 10M 
[   ]Leonard Cohen.tar.gz2018-03-01 04:02 391M 
[SND]likeastarn.mp32018-03-01 04:02 2.8M 
[SND]likeastoner.mp32018-03-01 04:02 2.7M 
[SND]ll5.mp32018-03-01 04:02 2.5M 
[SND]lonely.mp32018-03-01 04:02 1.7M 
[SND]Lost In Hollywood.ogg2018-03-01 04:02 8.0M 
[SND]lotsagees 1.mp32018-03-01 04:02 612K 
[SND]lotsagees-electric.mp32018-03-01 04:02 3.1M 
[SND]lotsagees.mp32018-03-01 04:02 428K 
[SND]Lots a Gees with Tastless Wanking Lead.mp32018-03-01 04:02 4.6M 
[SND]loverollercoaster.mp32018-03-01 04:02 4.3M 
[SND]lover-rc.mp32018-03-01 04:02 4.8M 
[SND]love u.ogg2018-03-01 04:02 290K 
[SND]lushlife.mp32018-03-01 04:02 1.3M 
[SND]Lush Life.mp32018-03-01 04:02 4.5M 
[SND]Lush Life TNG.mp32018-03-01 04:02 4.7M 
[SND]Lush Life TNGv.mp32018-03-01 04:02 4.7M 
[SND]luvvr2.mp32018-03-01 04:03 3.9M 
[SND]luvvr.mp32018-03-01 04:03 3.7M 
[SND]Machine Head - Davidian.mp32018-03-01 04:03 4.0M 
[SND]malibu.ogg2018-03-01 04:03 845K 
[SND]Mango.mp32018-03-01 04:03 4.6M 
[SND]Mary Jane.mp32018-03-01 04:03 4.6M 
[SND]mechassault.ogg2018-03-01 04:03 1.2M 
[SND]mechassault-sparse.ogg2018-03-01 04:03 1.2M 
[SND]Megadeth - 01 - Holy Wars... The Punishment Due.mp32018-03-01 04:03 7.6M 
[DIR]midlake/2018-03-01 04:03 -  
[SND]Mr. Brightside.ogg2018-03-01 04:04 5.8M 
[DIR]Muchas Gracias - Best Of Kyuss (2000)/2018-03-01 04:05 -  
[SND]myparanoia-drums.mp32018-03-01 04:06 6.5M 
[SND]myparanoia.mp32018-03-01 04:06 6.6M 
[SND]My Song2.mp32018-03-01 04:06 1.6M 
[SND]needle.mp32018-03-01 04:06 2.7M 
[SND]nobodyhome.mp32018-03-01 04:06 1.8M 
[SND]notreal.wav2018-03-01 04:06 8.2M 
[SND]nude-holovaty.mp32018-03-01 04:06 3.0M 
[SND]number.mp32018-03-01 04:06 1.7M 
[SND]nushelljam.mp32018-03-01 04:06 6.4M 
[SND]nutshell.mp32018-03-01 04:06 3.3M 
[SND]ohio-kj-tph.mp32018-03-01 04:06 955K 
[DIR]OK Computer/2018-03-01 04:07 -  
[SND]Opeth - 06- Serenity Painted Death.mp32018-03-01 04:07 8.5M 
[SND]outside1.mp32018-03-01 04:07 4.4M 
[SND]outside-buzzy.mp32018-03-01 04:07 2.0M 
[SND]outside-singalong.mp32018-03-01 04:07 4.8M 
[DIR]Pantera/2018-03-01 04:10 -  
[SND]paranoia-acoustic.mp32018-03-01 04:11 1.7M 
[SND]paranoia-saturn.mp32018-03-01 04:11 1.7M 
[SND]Penny's Rib Shack.mp32018-03-01 04:11 3.2M 
[SND]picketfence.mp32018-03-01 04:11 3.2M 
[SND]pinkside.mp32018-03-01 04:11 7.9M 
[SND]placebo-withoutyouimnothing.mp32018-03-01 04:11 3.9M 
[SND]prettygirl.mp32018-03-01 04:11 1.4M 
[SND]rc-cantyousee.mp32018-03-01 04:11 2.7M 
[SND]revelation-electric.mp32018-03-01 04:11 1.8M 
[SND]revelation.mp32018-03-01 04:12 3.8M 
[SND]revwright.mp32018-03-01 04:12 1.2M 
[SND]Rib Sandwich.mp32018-03-01 04:12 3.2M 
[DIR]rich/2018-03-01 04:12 -  
[SND]rich_get_this.mp32018-03-01 04:12 4.3M 
[   ]rivers-aac.band.tar.bz22018-03-01 04:12 4.8M 
[SND]rivers.mp32018-03-01 04:12 747K 
[SND]rivers-w-organ.mp32018-03-01 04:12 762K 
[SND]sailon.mp32018-03-01 04:12 2.7M 
[SND]Satisfied Mind (Jeff's funeral).mp32018-03-01 04:12 5.5M 
[SND]satisfiedmind.mp32018-03-01 04:13 5.5M 
[DIR]seventh/2018-03-01 04:13 -  
[SND]shred.mp32018-03-01 04:14 4.9M 
[SND]Silent Harmony.mp32018-03-01 04:14 4.3M 
[SND]Simple Plan.mp32018-03-01 04:14 2.3M 
[SND]snowdogs.mp32018-03-01 04:14 808K 
[SND]Somebody Told Me.ogg2018-03-01 04:14 5.0M 
[SND]Stained - Epiphany.mp32018-03-01 04:14 3.9M 
[SND]Starbucks.mp32018-03-01 04:14 3.8M 
[SND]STE-020.mp32018-03-01 04:14 4.9M 
[SND]stillwaters2.mp32018-03-01 04:14 1.4M 
[SND]stillwaters.mp32018-03-01 04:14 1.1M 
[SND]stillwaters-slow.mp32018-03-01 04:14 2.5M 
[SND]Sugar.mp32018-03-01 04:14 2.3M 
[SND]synchro.mp32018-03-01 04:14 1.5M 
[SND]System of a Down-BYOB.mp32018-03-01 04:14 5.5M 
[SND]System of a Down - Snowblind.mp32018-03-01 04:14 4.3M 
[SND]takemewithyou.mp32018-03-01 04:14 1.3M 
[SND]TharSheBlows.mp32018-03-01 04:14 13M 
[DIR]The Courage Of Others/2018-03-01 04:15 -  
[SND]The Last In Line.mp32018-03-01 04:16 5.3M 
[SND]thundrous.ogg2018-03-01 04:16 1.9M 
[SND]Tom Waits - Emotional Weather Report.mp32018-03-01 04:16 2.6M 
[SND]Tom Waits - What's He Building-.mp32018-03-01 04:16 2.3M 
[SND]tool.mp32018-03-01 04:16 758K 
[DIR]Tree of Tongues [Explicit]/2018-03-01 04:17 -  
[SND]tricia_ifyoucouldonly.mp32018-03-01 04:17 2.2M 
[SND]Unsatisfied Mind.mp32018-03-01 04:17 3.6M 
[SND]Vertigo Motel.mp32018-03-01 04:17 4.4M 
[SND]visitation 2.mp32018-03-01 04:17 1.0M 
[SND]visitation2.mp32018-03-01 04:17 1.0M 
[SND]visitation.mp32018-03-01 04:17 11M 
[SND]watchin.mp32018-03-01 04:17 1.9M 
[SND]whatshebuilding.mp32018-03-01 04:18 2.3M 
[SND]whofuckenknows.mp32018-03-01 04:18 15M 
[SND]wickedgame.mp32018-03-01 04:18 1.0M 
[SND]wildhorses-rc.mp32018-03-01 04:18 6.0M 
[SND]wildhorses.wav2018-03-01 04:18 14M 
[SND]woman2.mp32018-03-01 04:18 1.3M 
[SND]woman.mp32018-03-01 04:18 1.4M 
[SND]Yes - America.mp32018-03-01 04:18 9.7M 
[SND]youdontknowme.mp32018-03-01 04:18 2.1M 
[SND]yudunnome2.mp32018-03-01 04:18 1.9M 
[SND]yudunnome.mp32018-03-01 04:18 1.9M 
[SND]session.mp32018-06-25 22:41 604K 
[VID]hallelujah.mp42020-02-25 23:50 8.0M 

Apache/2.4.29 (Ubuntu) Server at bouncer.repoze.org Port 80